QPF
0.00 0.00 0.00 0.00 0.00 0.00 0.00 0.00 0.00 0.00 0.00 0.00 0.00 0.00 0.00 0.00 0.00 0.01 0.01 0.00 0.00 0.00 0.00 0.00 0.01 0.00 0.00 0.00 0.00 0.00 0.01 0.01 0.02 0.01 0.00 0.00 0.00 0.00 0.00 0.00 0.00 0.01 0.02
0.00 0.00 0.00 0.00 0.00 0.00 0.00 0.00 0.00 0.00 0.00 0.00 0.00 0.00 0.00 0.00 0.00 0.00 0.00 0.00 0.00 0.01 0.01 0.01 0.01 0.01 0.00 0.00 0.00 0.00 0.01 0.01 0.01 0.00 0.00 0.00 0.00 0.00 0.00 0.00 0.00 0.01 0.01
0.00 0.00 0.00 0.00 0.00 0.00 0.00 0.00 0.00 0.00 0.00 0.00 0.00 0.00 0.00 0.00 0.00 0.00 0.00 0.00 0.00 0.01 0.00 0.01 0.02 0.01 0.01 0.01 0.00 0.00 0.00 0.00 0.00 0.00 0.00 0.00 0.00 0.00 0.00 0.00 0.00 0.01 0.01
0.00 0.00 0.00 0.00 0.00 0.00 0.00 0.00 0.00 0.00 0.00 0.00 0.00 0.00 0.00 0.00 0.00 0.00 0.00 0.00 0.00 0.00 0.00 0.00 0.00 0.00 0.00 0.00 0.00 0.00 0.00 0.00 0.00 0.00 0.00 0.00 0.00 0.00 0.00 0.00 0.00 0.01 0.01
0.00 0.00 0.00 0.00 0.00 0.00 0.00 0.00 0.00 0.00 0.00 0.00 0.00 0.00 0.00 0.00 0.00 0.00 0.00 0.00 0.00 0.00 0.00 0.00 0.00 0.00 0.00 0.00 0.00 0.00 0.00 0.01 0.01 0.00 0.00 0.00 0.00 0.00 0.00 0.00 0.01 0.01 0.01
0.00 0.00 0.00 0.00 0.00 0.00 0.00 0.00 0.00 0.00 0.00 0.00 0.00 0.00 0.00 0.00 0.00 0.00 0.00 0.00 0.00 0.00 0.00 0.00 0.00 0.00 0.00 0.00 0.00 0.00 0.00 0.00 0.01 0.00 0.00 0.00 0.00 0.00 0.00 0.00 0.00 0.01 0.01
0.00 0.00 0.00 0.00 0.00 0.00 0.00 0.00 0.00 0.00 0.00 0.00 0.00 0.00 0.00 0.00 0.00 0.00 0.00 0.00 0.00 0.00 0.00 0.00 0.00 0.00 0.00 0.00 0.00 0.00 0.00 0.00 0.00 0.00 0.00 0.00 0.00 0.00 0.00 0.00 0.01 0.01 0.01
0.00 0.00 0.00 0.00 0.00 0.00 0.00 0.00 0.00 0.00 0.00 0.00 0.00 0.00 0.00 0.00 0.00 0.00 0.00 0.00 0.00 0.00 0.00 0.00 0.00 0.00 0.00 0.00 0.00 0.00 0.00 0.00 0.00 0.00 0.00 0.00 0.00 0.00 0.00 0.01 0.01 0.01 0.01
0.00 0.00 0.00 0.00 0.00 0.00 0.00 0.00 0.00 0.00 0.00 0.00 0.00 0.00 0.00 0.00 0.00 0.00 0.00 0.00 0.00 0.00 0.00 0.00 0.00 0.00 0.00 0.00 0.00 0.00 0.00 0.00 0.00 0.00 0.00 0.00 0.00 0.00 0.00 0.00 0.01 0.01 0.01
0.00 0.00 0.00 0.00 0.00 0.00 0.00 0.00 0.00 0.00 0.00 0.00 0.00 0.00 0.00 0.00 0.00 0.00 0.00 0.00 0.00 0.00 0.00 0.00 0.00 0.00 0.00 0.00 0.00 0.00 0.00 0.00 0.00 0.00 0.00 0.00 0.00 0.00 0.00 0.00 0.01 0.01 0.01
0.00 0.00 0.00 0.00 0.00 0.00 0.00 0.00 0.00 0.00 0.00 0.00 0.00 0.00 0.00 0.00 0.00 0.00 0.00 0.00 0.00 0.00 0.00 0.00 0.00 0.00 0.00 0.00 0.00 0.00 0.00 0.00 0.00 0.00 0.00 0.00 0.00 0.00 0.00 0.00 0.00 0.01 0.01
0.00 0.00 0.00 0.00 0.00 0.00 0.00 0.00 0.00 0.00 0.00 0.00 0.00 0.00 0.00 0.00 0.00 0.00 0.00 0.00 0.00 0.00 0.00 0.00 0.00 0.00 0.00 0.00 0.00 0.01 0.00 0.00 0.00 0.01 0.01 0.01 0.00 0.00 0.00 0.00 0.00 0.01 0.01
0.00 0.00 0.00 0.00 0.00 0.00 0.00 0.00 0.00 0.00 0.00 0.00 0.00 0.00 0.00 0.00 0.00 0.00 0.00 0.00 0.00 0.00 0.00 0.00 0.00 0.00 0.00 0.00 0.00 0.00 0.00 0.00 0.01 0.01 0.01 0.01 0.01 0.01 0.00 0.00 0.01 0.01 0.01
0.00 0.00 0.00 0.00 0.00 0.00 0.00 0.00 0.00 0.00 0.00 0.00 0.00 0.00 0.00 0.00 0.00 0.00 0.00 0.00 0.00 0.00 0.00 0.00 0.00 0.00 0.00 0.00 0.00 0.00 0.00 0.01 0.01 0.01 0.01 0.01 0.01 0.01 0.01 0.01 0.01 0.01 0.01
0.00 0.00 0.00 0.00 0.00 0.00 0.00 0.00 0.00 0.00 0.00 0.00 0.00 0.00 0.00 0.00 0.00 0.00 0.00 0.00 0.00 0.00 0.00 0.00 0.00 0.00 0.00 0.00 0.00 0.00 0.00 0.00 0.00 0.01 0.01 0.01 0.00 0.00 0.01 0.01 0.01 0.01 0.02
0.00 0.00 0.00 0.00 0.00 0.00 0.00 0.00 0.00 0.00 0.00 0.00 0.00 0.00 0.00 0.00 0.00 0.00 0.00 0.00 0.00 0.00 0.00 0.00 0.00 0.00 0.00 0.00 0.00 0.00 0.00 0.00 0.00 0.00 0.00 0.00 0.01 0.01 0.01 0.01 0.01 0.02 0.03
0.00 0.00 0.00 0.00 0.00 0.00 0.00 0.00 0.00 0.00 0.00 0.00 0.00 0.00 0.00 0.00 0.00 0.00 0.00 0.00 0.00 0.00 0.00 0.00 0.00 0.00 0.00 0.00 0.00 0.00 0.00 0.00 0.00 0.00 0.00 0.01 0.01 0.01 0.01 0.01 0.02 0.02 0.02
0.00 0.00 0.00 0.00 0.00 0.00 0.00 0.00 0.00 0.00 0.00 0.00 0.00 0.00 0.00 0.00 0.00 0.00 0.00 0.00 0.00 0.00 0.00 0.00 0.00 0.00 0.00 0.00 0.00 0.00 0.00 0.00 0.00 0.00 0.00 0.01 0.01 0.02 0.02 0.02 0.02 0.02 0.02
0.00 0.00 0.00 0.00 0.00 0.00 0.00 0.00 0.00 0.00 0.00 0.00 0.00 0.00 0.00 0.00 0.00 0.00 0.00 0.00 0.00 0.00 0.00 0.00 0.00 0.00 0.00 0.00 0.00 0.00 0.00 0.00 0.00 0.01 0.01 0.01 0.01 0.01 0.01 0.01 0.02 0.02 0.02
0.00 0.00 0.00 0.00 0.00 0.00 0.00 0.00 0.00 0.00 0.00 0.00 0.00 0.00 0.00 0.00 0.00 0.00 0.00 0.00 0.00 0.00 0.00 0.00 0.00 0.00 0.00 0.00 0.01 0.00 0.00 0.01 0.01 0.01 0.01 0.01 0.01 0.01 0.02 0.02 0.02 0.02 0.02
0.00 0.00 0.00 0.00 0.00 0.00 0.00 0.00 0.00 0.00 0.00 0.00 0.00 0.00 0.00 0.00 0.00 0.00 0.00 0.00 0.00 0.00 0.00 0.00 0.00 0.00 0.01 0.01 0.01 0.01 0.01 0.01 0.01 0.01 0.01 0.01 0.01 0.01 0.01 0.02 0.02 0.02 0.03
0.00 0.00 0.00 0.00 0.00 0.00 0.00 0.00 0.00 0.00 0.00 0.00 0.00 0.00 0.00 0.00 0.00 0.00 0.00 0.00 0.00 0.00 0.00 0.01 0.01 0.01 0.01 0.01 0.01 0.00 0.01 0.01 0.01 0.01 0.01 0.01 0.01 0.01 0.01 0.02 0.02 0.02 0.02
0.00 0.00 0.00 0.00 0.00 0.00 0.00 0.00 0.00 0.00 0.00 0.00 0.00 0.00 0.00 0.00 0.00 0.00 0.00 0.00 0.00 0.00 0.01 0.01 0.01 0.01 0.01 0.00 0.00 0.01 0.01 0.01 0.01 0.01 0.01 0.01 0.01 0.01 0.01 0.02 0.02 0.02 0.02
0.00 0.00 0.00 0.00 0.00 0.00 0.00 0.00 0.00 0.00 0.00 0.00 0.00 0.00 0.00 0.00 0.00 0.00 0.00 0.00 0.00 0.01 0.01 0.01 0.01 0.00 0.00 0.00 0.00 0.00 0.00 0.00 0.00 0.01 0.01 0.01 0.01 0.01 0.01 0.02 0.02 0.02 0.02
0.00 0.00 0.00 0.00 0.00 0.00 0.00 0.00 0.00 0.00 0.00 0.00 0.00 0.00 0.00 0.00 0.00 0.00 0.00 0.00 0.01 0.00 0.00 0.00 0.00 0.00 0.00 0.00 0.00 0.00 0.00 0.00 0.00 0.00 0.00 0.01 0.01 0.01 0.01 0.01 0.01 0.01 0.02
0.00 0.00 0.00 0.00 0.00 0.00 0.00 0.00 0.00 0.00 0.00 0.00 0.00 0.00 0.00 0.00 0.00 0.00 0.01 0.01 0.01 0.00 0.00 0.00 0.00 0.00 0.00 0.00 0.00 0.00 0.00 0.00 0.00 0.00 0.00 0.00 0.01 0.01 0.01 0.01 0.01 0.02 0.02
MSLP
1015.55 1015.84 1016.16 1016.47 1016.76 1017.01 1017.21 1017.36 1017.48 1017.59 1017.71 1017.87 1018.06 1018.29 1018.53 1018.77 1018.98 1019.15 1019.27 1019.33 1019.35 1019.34 1019.34 1019.37 1019.43 1019.54 1019.69 1019.87 1020.06 1020.24 1020.38 1020.48 1020.53 1020.53 1020.49 1020.42 1020.34 1020.26 1020.19 1020.13 1020.09 1020.06 1020.03
1015.43 1015.72 1016.02 1016.32 1016.60 1016.83 1017.01 1017.16 1017.29 1017.41 1017.57 1017.76 1017.99 1018.26 1018.55 1018.84 1019.11 1019.33 1019.49 1019.59 1019.64 1019.67 1019.69 1019.72 1019.78 1019.87 1020.00 1020.16 1020.32 1020.47 1020.59 1020.68 1020.71 1020.71 1020.66 1020.59 1020.50 1020.41 1020.32 1020.24 1020.17 1020.10 1020.05
1015.29 1015.59 1015.90 1016.19 1016.46 1016.68 1016.85 1017.00 1017.13 1017.28 1017.45 1017.66 1017.93 1018.23 1018.55 1018.87 1019.17 1019.42 1019.61 1019.74 1019.82 1019.87 1019.91 1019.95 1020.01 1020.10 1020.23 1020.37 1020.52 1020.65 1020.77 1020.85 1020.88 1020.88 1020.83 1020.76 1020.67 1020.57 1020.47 1020.37 1020.27 1020.17 1020.08
1015.13 1015.47 1015.79 1016.09 1016.36 1016.58 1016.76 1016.91 1017.05 1017.21 1017.40 1017.63 1017.91 1018.22 1018.55 1018.88 1019.17 1019.43 1019.62 1019.76 1019.86 1019.92 1019.97 1020.02 1020.10 1020.20 1020.32 1020.46 1020.61 1020.75 1020.87 1020.95 1021.00 1021.01 1020.98 1020.92 1020.84 1020.74 1020.63 1020.51 1020.39 1020.26 1020.12
1014.98 1015.35 1015.71 1016.03 1016.31 1016.54 1016.73 1016.90 1017.06 1017.23 1017.43 1017.67 1017.95 1018.25 1018.56 1018.87 1019.14 1019.37 1019.55 1019.68 1019.76 1019.83 1019.88 1019.95 1020.04 1020.15 1020.29 1020.45 1020.61 1020.76 1020.89 1020.99 1021.05 1021.08 1021.06 1021.02 1020.95 1020.87 1020.76 1020.63 1020.50 1020.34 1020.17
1014.84 1015.27 1015.66 1016.02 1016.32 1016.58 1016.79 1016.97 1017.15 1017.34 1017.55 1017.78 1018.05 1018.33 1018.60 1018.87 1019.09 1019.28 1019.42 1019.52 1019.59 1019.65 1019.71 1019.78 1019.89 1020.02 1020.17 1020.35 1020.52 1020.69 1020.84 1020.95 1021.03 1021.07 1021.08 1021.05 1021.00 1020.93 1020.83 1020.72 1020.57 1020.41 1020.21
1014.74 1015.22 1015.67 1016.05 1016.39 1016.67 1016.90 1017.11 1017.31 1017.51 1017.73 1017.96 1018.20 1018.45 1018.69 1018.90 1019.07 1019.21 1019.30 1019.37 1019.41 1019.46 1019.52 1019.61 1019.72 1019.87 1020.05 1020.23 1020.42 1020.60 1020.75 1020.87 1020.95 1021.00 1021.02 1021.01 1020.98 1020.92 1020.84 1020.74 1020.60 1020.44 1020.24
1014.72 1015.24 1015.72 1016.14 1016.50 1016.81 1017.06 1017.30 1017.52 1017.73 1017.95 1018.18 1018.40 1018.62 1018.81 1018.97 1019.10 1019.19 1019.24 1019.28 1019.31 1019.35 1019.41 1019.51 1019.64 1019.80 1019.98 1020.18 1020.36 1020.53 1020.67 1020.78 1020.85 1020.89 1020.91 1020.89 1020.86 1020.82 1020.76 1020.67 1020.57 1020.42 1020.25
1014.76 1015.33 1015.83 1016.27 1016.65 1016.98 1017.26 1017.51 1017.74 1017.97 1018.19 1018.41 1018.62 1018.81 1018.97 1019.10 1019.19 1019.25 1019.28 1019.30 1019.33 1019.37 1019.44 1019.55 1019.69 1019.85 1020.03 1020.22 1020.39 1020.53 1020.64 1020.71 1020.75 1020.76 1020.74 1020.71 1020.68 1020.63 1020.58 1020.52 1020.44 1020.33 1020.19
1014.88 1015.46 1015.98 1016.44 1016.83 1017.16 1017.46 1017.72 1017.96 1018.20 1018.42 1018.64 1018.84 1019.01 1019.16 1019.27 1019.35 1019.39 1019.42 1019.45 1019.48 1019.54 1019.62 1019.73 1019.88 1020.04 1020.20 1020.36 1020.49 1020.59 1020.65 1020.67 1020.65 1020.60 1020.54 1020.48 1020.41 1020.36 1020.31 1020.26 1020.21 1020.14 1020.05
1015.03 1015.62 1016.15 1016.61 1017.00 1017.34 1017.64 1017.91 1018.16 1018.39 1018.62 1018.83 1019.02 1019.19 1019.34 1019.45 1019.53 1019.59 1019.64 1019.68 1019.73 1019.80 1019.90 1020.02 1020.16 1020.30 1020.44 1020.55 1020.64 1020.67 1020.67 1020.61 1020.53 1020.42 1020.30 1020.18 1020.08 1020.00 1019.94 1019.90 1019.87 1019.83 1019.78
1015.17 1015.77 1016.30 1016.76 1017.15 1017.49 1017.79 1018.06 1018.30 1018.53 1018.75 1018.96 1019.15 1019.33 1019.48 1019.60 1019.70 1019.79 1019.86 1019.93 1020.01 1020.10 1020.20 1020.32 1020.44 1020.56 1020.65 1020.72 1020.74 1020.71 1020.63 1020.51 1020.35 1020.17 1019.99 1019.82 1019.67 1019.56 1019.48 1019.43 1019.40 1019.39 1019.37
1015.26 1015.86 1016.39 1016.86 1017.25 1017.59 1017.88 1018.14 1018.38 1018.60 1018.81 1019.01 1019.20 1019.38 1019.54 1019.68 1019.81 1019.92 1020.03 1020.12 1020.22 1020.33 1020.43 1020.53 1020.62 1020.70 1020.75 1020.75 1020.71 1020.62 1020.48 1020.30 1020.08 1019.85 1019.62 1019.40 1019.21 1019.06 1018.96 1018.89 1018.86 1018.84 1018.84
1015.27 1015.87 1016.41 1016.87 1017.27 1017.61 1017.90 1018.15 1018.37 1018.58 1018.77 1018.96 1019.14 1019.32 1019.49 1019.65 1019.80 1019.94 1020.07 1020.19 1020.30 1020.40 1020.49 1020.57 1020.63 1020.66 1020.65 1020.61 1020.51 1020.37 1020.19 1019.96 1019.72 1019.45 1019.20 1018.95 1018.74 1018.56 1018.42 1018.33 1018.27 1018.25 1018.24
1015.19 1015.79 1016.33 1016.80 1017.21 1017.55 1017.83 1018.08 1018.28 1018.47 1018.64 1018.81 1018.98 1019.15 1019.32 1019.49 1019.66 1019.82 1019.96 1020.09 1020.21 1020.30 1020.36 1020.41 1020.42 1020.40 1020.35 1020.25 1020.12 1019.95 1019.75 1019.52 1019.27 1019.02 1018.76 1018.52 1018.30 1018.10 1017.95 1017.83 1017.74 1017.68 1017.64
1015.02 1015.62 1016.17 1016.65 1017.07 1017.41 1017.70 1017.93 1018.12 1018.29 1018.44 1018.58 1018.73 1018.89 1019.06 1019.23 1019.40 1019.57 1019.72 1019.85 1019.95 1020.03 1020.06 1020.07 1020.03 1019.97 1019.87 1019.75 1019.59 1019.42 1019.23 1019.02 1018.81 1018.59 1018.37 1018.16 1017.96 1017.77 1017.61 1017.46 1017.34 1017.24 1017.15
1014.82 1015.42 1015.97 1016.46 1016.89 1017.24 1017.53 1017.75 1017.92 1018.07 1018.19 1018.31 1018.44 1018.59 1018.74 1018.91 1019.09 1019.26 1019.41 1019.53 1019.62 1019.67 1019.67 1019.64 1019.56 1019.45 1019.33 1019.18 1019.03 1018.87 1018.71 1018.55 1018.40 1018.24 1018.09 1017.93 1017.77 1017.61 1017.45 1017.30 1017.14 1016.99 1016.85
1014.67 1015.25 1015.80 1016.30 1016.73 1017.08 1017.36 1017.58 1017.74 1017.86 1017.97 1018.06 1018.17 1018.30 1018.45 1018.62 1018.79 1018.96 1019.11 1019.23 1019.30 1019.33 1019.30 1019.23 1019.12 1018.98 1018.83 1018.67 1018.53 1018.39 1018.28 1018.18 1018.10 1018.02 1017.95 1017.86 1017.76 1017.64 1017.50 1017.34 1017.16 1016.97 1016.77
1014.63 1015.19 1015.72 1016.22 1016.65 1017.00 1017.28 1017.48 1017.63 1017.73 1017.82 1017.90 1017.99 1018.11 1018.25 1018.41 1018.59 1018.76 1018.91 1019.03 1019.09 1019.10 1019.05 1018.95 1018.81 1018.65 1018.47 1018.31 1018.17 1018.07 1018.00 1017.96 1017.94 1017.94 1017.94 1017.93 1017.89 1017.81 1017.70 1017.54 1017.35 1017.12 1016.87
1014.76 1015.29 1015.80 1016.28 1016.70 1017.04 1017.31 1017.51 1017.64 1017.73 1017.80 1017.87 1017.95 1018.06 1018.20 1018.36 1018.54 1018.72 1018.87 1018.98 1019.04 1019.03 1018.97 1018.85 1018.69 1018.50 1018.31 1018.14 1018.01 1017.92 1017.88 1017.88 1017.92 1017.98 1018.04 1018.08 1018.09 1018.06 1017.97 1017.82 1017.62 1017.37 1017.08
1015.10 1015.59 1016.07 1016.52 1016.92 1017.25 1017.50 1017.68 1017.81 1017.89 1017.95 1018.01 1018.08 1018.19 1018.33 1018.49 1018.67 1018.85 1019.00 1019.11 1019.16 1019.14 1019.06 1018.92 1018.74 1018.54 1018.33 1018.15 1018.00 1017.91 1017.88 1017.90 1017.96 1018.05 1018.15 1018.23 1018.27 1018.26 1018.19 1018.04 1017.84 1017.58 1017.26
1015.64 1016.08 1016.52 1016.93 1017.30 1017.60 1017.84 1018.01 1018.13 1018.20 1018.26 1018.31 1018.38 1018.49 1018.62 1018.78 1018.95 1019.12 1019.27 1019.37 1019.40 1019.37 1019.27 1019.12 1018.91 1018.68 1018.45 1018.25 1018.09 1017.98 1017.93 1017.94 1018.00 1018.09 1018.18 1018.27 1018.31 1018.31 1018.24 1018.10 1017.89 1017.62 1017.29
1016.32 1016.72 1017.11 1017.48 1017.81 1018.09 1018.31 1018.47 1018.57 1018.64 1018.70 1018.75 1018.82 1018.91 1019.03 1019.18 1019.33 1019.48 1019.60 1019.67 1019.68 1019.63 1019.50 1019.32 1019.09 1018.84 1018.58 1018.35 1018.15 1018.02 1017.94 1017.92 1017.94 1018.00 1018.07 1018.13 1018.16 1018.14 1018.05 1017.91 1017.69 1017.41 1017.07
1017.09 1017.43 1017.77 1018.10 1018.39 1018.64 1018.84 1018.98 1019.09 1019.16 1019.21 1019.26 1019.32 1019.39 1019.49 1019.60 1019.72 1019.82 1019.89 1019.92 1019.89 1019.80 1019.64 1019.43 1019.17 1018.89 1018.61 1018.35 1018.12 1017.95 1017.83 1017.76 1017.74 1017.75 1017.78 1017.79 1017.78 1017.72 1017.62 1017.45 1017.22 1016.93 1016.59
1017.84 1018.13 1018.42 1018.70 1018.96 1019.18 1019.37 1019.51 1019.60 1019.68 1019.72 1019.77 1019.81 1019.86 1019.92 1019.98 1020.04 1020.08 1020.08 1020.05 1019.96 1019.81 1019.61 1019.36 1019.08 1018.77 1018.47 1018.19 1017.94 1017.74 1017.58 1017.47 1017.40 1017.36 1017.33 1017.28 1017.22 1017.12 1016.98 1016.78 1016.53 1016.24 1015.89
1018.51 1018.75 1019.00 1019.24 1019.46 1019.66 1019.83 1019.97 1020.07 1020.14 1020.19 1020.22 1020.24 1020.25 1020.26 1020.25 1020.24 1020.19 1020.12 1020.00 1019.84 1019.64 1019.39 1019.10 1018.79 1018.47 1018.16 1017.87 1017.61 1017.39 1017.21 1017.07 1016.96 1016.86 1016.78 1016.68 1016.56 1016.42 1016.23 1016.00 1015.73 1015.42 1015.06
Thickness
5744 5743 5742 5741 5740 5738 5735 5734 5733 5732 5730 5728 5726 5723 5720 5718 5715 5712 5710 5709 5707 5706 5705 5704 5702 5702 5700 5700 5699 5698 5696 5694 5689 5690 5694 5696 5697 5698 5700 5701 5703 5705 5706
5744 5743 5741 5740 5739 5736 5734 5733 5733 5731 5730 5728 5725 5723 5720 5717 5714 5712 5709 5708 5706 5704 5703 5701 5699 5699 5697 5696 5695 5694 5692 5692 5688 5686 5688 5690 5692 5694 5696 5698 5700 5702 5703
5744 5742 5740 5738 5737 5735 5734 5733 5732 5730 5729 5727 5724 5721 5718 5715 5713 5711 5709 5707 5706 5703 5701 5699 5697 5695 5692 5692 5691 5689 5688 5688 5687 5684 5683 5686 5688 5690 5691 5692 5694 5696 5698
5742 5740 5738 5736 5736 5734 5733 5732 5730 5729 5726 5724 5722 5719 5717 5714 5711 5709 5707 5705 5704 5702 5700 5697 5694 5691 5689 5687 5686 5684 5683 5682 5681 5680 5679 5680 5681 5683 5683 5683 5685 5688 5690
5739 5737 5736 5736 5735 5733 5730 5729 5727 5726 5724 5722 5719 5716 5714 5710 5707 5704 5703 5702 5700 5698 5697 5694 5691 5689 5687 5684 5681 5679 5678 5675 5674 5673 5672 5672 5672 5672 5673 5675 5675 5678 5682
5738 5735 5735 5733 5731 5729 5727 5725 5723 5721 5720 5718 5715 5712 5709 5706 5703 5701 5699 5697 5696 5695 5692 5691 5688 5685 5683 5680 5678 5676 5674 5671 5668 5666 5665 5664 5664 5665 5666 5667 5666 5666 5667
5736 5734 5732 5730 5727 5725 5724 5721 5718 5717 5715 5712 5710 5707 5703 5700 5699 5697 5695 5693 5692 5690 5689 5686 5685 5682 5678 5675 5673 5672 5669 5667 5666 5662 5659 5658 5658 5658 5658 5657 5656 5656 5656
5735 5732 5730 5727 5724 5722 5719 5716 5714 5713 5710 5707 5705 5702 5699 5696 5695 5693 5691 5689 5688 5686 5684 5682 5678 5675 5672 5669 5667 5665 5664 5662 5661 5658 5656 5654 5654 5653 5651 5649 5648 5648 5650
5734 5731 5728 5725 5721 5718 5715 5713 5711 5709 5706 5704 5701 5698 5695 5691 5690 5688 5686 5684 5682 5680 5679 5676 5672 5668 5666 5664 5661 5658 5657 5656 5655 5652 5650 5649 5648 5646 5644 5641 5638 5635 5635
5734 5731 5727 5724 5719 5715 5713 5710 5708 5705 5702 5700 5697 5694 5691 5687 5685 5683 5680 5677 5675 5674 5672 5669 5666 5662 5659 5657 5653 5650 5648 5647 5646 5645 5643 5642 5640 5638 5636 5632 5628 5624 5623
5733 5729 5725 5721 5717 5713 5710 5707 5704 5701 5698 5695 5692 5689 5687 5684 5680 5677 5674 5670 5667 5666 5664 5661 5658 5656 5653 5650 5646 5643 5641 5640 5638 5636 5634 5633 5631 5629 5626 5623 5619 5614 5611
5730 5724 5720 5717 5714 5710 5705 5702 5699 5695 5691 5688 5686 5683 5681 5679 5675 5671 5668 5665 5662 5658 5655 5653 5650 5648 5645 5642 5639 5637 5635 5632 5629 5626 5624 5621 5619 5617 5616 5612 5609 5606 5602
5724 5719 5715 5712 5708 5705 5700 5696 5693 5689 5685 5683 5680 5677 5675 5673 5669 5666 5662 5659 5655 5651 5648 5646 5643 5640 5638 5635 5632 5629 5626 5622 5618 5614 5612 5609 5608 5606 5604 5601 5597 5594 5590
5718 5714 5710 5707 5702 5699 5696 5692 5688 5684 5680 5678 5675 5671 5669 5666 5662 5658 5655 5651 5648 5644 5640 5638 5636 5633 5629 5626 5624 5620 5616 5612 5607 5603 5600 5598 5596 5593 5590 5586 5581 5578 5574
5714 5709 5706 5702 5698 5694 5690 5687 5684 5681 5678 5673 5670 5667 5662 5658 5656 5653 5648 5644 5640 5636 5632 5629 5625 5622 5619 5616 5613 5610 5606 5602 5597 5593 5589 5586 5582 5579 5575 5571 5566 5562 5557
5710 5705 5701 5697 5693 5689 5684 5679 5677 5675 5672 5669 5666 5662 5658 5655 5650 5646 5642 5638 5633 5628 5623 5618 5615 5612 5609 5606 5602 5598 5594 5589 5585 5580 5576 5572 5568 5564 5560 5556 5551 5546 5542
5706 5702 5697 5693 5688 5684 5680 5674 5669 5666 5664 5662 5659 5655 5651 5647 5643 5638 5633 5629 5624 5619 5612 5608 5605 5602 5598 5595 5590 5585 5581 5577 5572 5567 5562 5558 5554 5550 5546 5542 5537 5532 5528
5702 5698 5693 5688 5683 5679 5675 5671 5666 5661 5656 5653 5651 5648 5644 5639 5634 5630 5624 5618 5612 5608 5603 5599 5596 5592 5588 5584 5579 5574 5569 5564 5559 5554 5549 5544 5539 5535 5531 5526 5521 5516 5513
5695 5691 5687 5683 5678 5673 5669 5665 5661 5658 5653 5649 5645 5641 5637 5632 5626 5621 5615 5608 5604 5600 5596 5592 5587 5583 5578 5573 5568 5563 5558 5552 5547 5541 5536 5531 5526 5520 5515 5510 5505 5501 5497
5688 5685 5680 5675 5671 5667 5663 5659 5655 5651 5647 5643 5638 5635 5629 5622 5616 5611 5606 5600 5596 5592 5588 5583 5578 5573 5568 5563 5557 5551 5545 5540 5534 5528 5523 5518 5512 5506 5501 5495 5490 5485 5481
5681 5677 5673 5668 5664 5660 5656 5652 5648 5643 5639 5636 5632 5629 5624 5616 5610 5605 5600 5594 5588 5583 5578 5573 5568 5563 5557 5551 5545 5539 5533 5527 5521 5515 5510 5504 5498 5492 5486 5480 5475 5470 5465
5673 5669 5664 5660 5656 5652 5648 5645 5640 5636 5632 5627 5623 5619 5615 5608 5602 5597 5592 5587 5581 5576 5570 5564 5558 5552 5545 5539 5533 5526 5520 5514 5508 5502 5495 5489 5483 5477 5471 5465 5460 5455 5451
5664 5660 5655 5651 5647 5643 5639 5635 5631 5627 5622 5618 5613 5608 5603 5598 5592 5587 5582 5577 5571 5566 5560 5553 5547 5540 5534 5527 5521 5514 5507 5501 5494 5487 5480 5474 5468 5462 5456 5451 5446 5442 5438
5653 5649 5645 5641 5637 5633 5629 5625 5621 5616 5612 5607 5602 5597 5592 5587 5582 5577 5571 5565 5560 5554 5547 5541 5535 5528 5522 5515 5508 5502 5494 5487 5480 5473 5466 5460 5454 5449 5443 5438 5434 5430 5427
5640 5637 5633 5629 5625 5621 5617 5613 5609 5605 5600 5595 5590 5585 5580 5575 5569 5564 5559 5553 5547 5541 5535 5528 5522 5515 5508 5502 5495 5488 5481 5474 5466 5459 5452 5447 5442 5437 5432 5427 5423 5420 5417
5627 5624 5621 5617 5613 5609 5604 5600 5596 5592 5587 5582 5577 5572 5567 5561 5556 5550 5545 5539 5533 5527 5522 5515 5509 5502 5496 5489 5483 5476 5468 5461 5454 5446 5440 5434 5429 5425 5421 5417 5414 5410 5408